DW8571 Weather Reports


Display with metric or nautical units.
time (UTC)temp
F
wind
direction
speed
MPH
gust
MPH
rain 1hr
in
rain 24hr
in
rain mn
in
humidity
%
barometer
mb
20191208011637 45 346 0.0 0.0 0.00 0.00 0.00 89 1022.0
20191208010148 46 346 0.0 0.0 0.00 0.00 0.00 89 1022.0
20191208004659 46 346 0.0 0.0 0.00 0.00 0.00 88 1022.1
20191208003156 47 346 0.0 0.0 0.00 0.00 0.00 87 1022.2
20191208001631 48 346 0.0 0.0 0.00 0.00 0.00 86 1022.2
20191208000121 49 346 0.0 0.0 0.00 0.00 0.00 85 1022.1
20191207234652 50 346 0.0 0.0 0.00 0.00 0.00 85 1022.1
20191207233200 51 346 0.0 0.0 0.00 0.00 0.00 83 1022.1
20191207231603 52 346 0.0 0.0 0.00 0.00 0.00 80 1022.1
20191207230248 53 346 0.0 0.0 0.00 0.00 0.00 80 1022.2
20191207224616 55 346 0.0 0.0 0.00 0.00 0.00 76 1022.1
20191207223147 56 346 0.0 2.0 0.00 0.00 0.00 75 1022.0
20191207221644 56 346 0.0 3.0 0.00 0.00 0.00 74 1021.9
20191207220218 57 326 0.0 4.0 0.00 0.00 0.00 73 1021.9
20191207214614 57 344 2.0 4.0 0.00 0.00 0.00 72 1022.0
20191207213212 57 335 0.0 5.0 0.00 0.00 0.00 72 1021.9
20191207211616 57 14 2.0 6.0 0.00 0.00 0.00 73 1021.9
20191207210200 56 355 1.0 8.0 0.00 0.00 0.00 74 1021.9
20191207204634 56 312 2.0 6.0 0.00 0.01 0.00 74 1022.0
20191207203111 56 320 3.0 6.0 0.00 0.01 0.00 75 1022.0
20191207201553 55 13 2.0 5.0 0.00 0.01 0.00 75 1022.1
20191207200059 55 38 4.0 6.0 0.00 0.01 0.00 76 1022.1
20191207194557 54 338 1.0 6.0 0.00 0.01 0.00 78 1022.2
20191207193103 54 339 2.0 7.0 0.00 0.01 0.00 78 1022.7
20191207191542 53 15 3.0 9.0 0.00 0.01 0.00 80 1022.9
20191207190058 52 38 2.0 8.0 0.00 0.01 0.00 81 1023.1
20191207184537 52 328 3.0 7.0 0.00 0.01 0.00 82 1023.2
20191207183115 51 42 4.0 7.0 0.00 0.01 0.00 83 1023.4
20191207181541 50 325 3.0 10.0 0.00 0.01 0.00 85 1023.7
20191207180040 49 26 3.0 7.0 0.00 0.01 0.00 87 1023.9
20191207174547 48 9 2.0 6.0 0.00 0.01 0.00 88 1024.0
20191207173048 47 327 0.0 5.0 0.00 0.01 0.00 89 1024.1
20191207171528 47 355 2.0 7.0 0.00 0.01 0.00 90 1024.4
20191207170031 46 28 3.0 6.0 0.00 0.01 0.00 92 1024.6
20191207164551 46 306 2.0 7.0 0.00 0.02 0.00 92 1024.8
20191207163033 45 333 2.0 6.0 0.00 0.02 0.00 92 1024.9
20191207161550 45 32 3.0 6.0 0.00 0.02 0.00 93 1025.0
20191207160034 45 328 3.0 8.0 0.00 0.02 0.00 93 1024.9
20191207154545 45 347 3.0 6.0 0.00 0.03 0.00 93 1024.9
20191207153017 45 360 3.0 6.0 0.00 0.03 0.00 93 1024.8
20191207151521 45 15 2.0 6.0 0.00 0.03 0.00 93 1024.6
20191207150043 44 5 2.0 6.0 0.00 0.04 0.00 94 1024.2
20191207144517 44 38 4.0 7.0 0.00 0.04 0.00 94 1024.2
20191207143013 44 350 3.0 7.0 0.00 0.04 0.00 94 1024.2
20191207141535 44 5 4.0 7.0 0.00 0.04 0.00 94 1024.2
20191207140012 44 5 1.0 5.0 0.00 0.05 0.00 94 1024.2
20191207134506 44 5 2.0 4.0 0.00 0.05 0.00 94 1024.0
20191207133024 44 24 3.0 7.0 0.00 0.05 0.00 94 1023.9
20191207131509 44 22 2.0 6.0 0.00 0.05 0.00 94 1023.9
20191207130007 44 30 3.0 6.0 0.00 0.05 0.00 94 1023.9
20191207124753 44 44 2.0 6.0 0.00 0.05 0.00 94 1023.7
20191207123159 44 38 4.0 8.0 0.00 0.05 0.00 94 1023.8
20191207121715 44 65 3.0 8.0 0.00 0.05 0.00 94 1023.7
20191207120135 44 11 2.0 7.0 0.00 0.05 0.00 93 1023.5
20191207114722 44 11 3.0 7.0 0.00 0.05 0.00 93 1023.3
20191207113128 44 22 3.0 7.0 0.00 0.05 0.00 93 1023.3
20191207111631 45 5 4.0 7.0 0.00 0.05 0.00 93 1023.2
20191207110134 45 15 4.0 6.0 0.00 0.05 0.00 93 1023.1
20191207104658 45 5 3.0 8.0 0.00 0.05 0.00 93 1023.0
20191207103143 45 22 3.0 8.0 0.00 0.05 0.00 93 1023.0
20191207101615 45 15 3.0 8.0 0.00 0.05 0.00 94 1023.0
20191207100055 46 19 2.0 6.0 0.00 0.05 0.00 94 1023.0
20191207094628 46 17 3.0 7.0 0.00 0.05 0.00 94 1022.9
20191207093102 46 20 2.0 6.0 0.00 0.05 0.00 94 1022.9
20191207091556 46 360 4.0 9.0 0.00 0.05 0.00 94 1023.1
20191207090223 47 5 4.0 8.0 0.00 0.05 0.00 94 1023.0
20191207084547 47 347 4.0 9.0 0.00 0.05 0.00 94 1022.8
20191207083051 47 13 3.0 7.0 0.00 0.05 0.00 94 1022.8
20191207081552 47 34 4.0 8.0 0.00 0.05 0.00 94 1022.8
20191207080040 48 333 3.0 7.0 0.00 0.05 0.00 94 1022.7
20191207074530 48 14 4.0 8.0 0.00 0.05 0.00 93 1022.6
20191207073048 48 30 6.0 10.0 0.00 0.05 0.00 93 1022.3
20191207071605 49 23 6.0 9.0 0.00 0.05 0.00 93 1022.4
20191207070018 49 339 4.0 11.0 0.00 0.05 0.00 94 1022.5
20191207064608 50 19 3.0 9.0 0.00 0.05 0.00 94 1022.3
20191207063023 50 337 2.0 7.0 0.00 0.05 0.00 94 1022.3
20191207061556 50 20 3.0 7.0 0.00 0.05 0.00 94 1022.2
20191207060034 50 360 3.0 9.0 0.00 0.05 0.05 94 1022.2
20191207054536 51 355 4.0 7.0 0.00 0.05 0.05 95 1022.2
20191207053013 51 321 3.0 7.0 0.00 0.05 0.05 95 1022.2
20191207051506 51 12 2.0 7.0 0.00 0.05 0.05 95 1022.1
20191207050016 51 31 2.0 5.0 0.00 0.05 0.05 95 1022.0
20191207044507 51 41 2.0 6.0 0.00 0.05 0.05 95 1022.0
20191207043005 51 355 1.0 4.0 0.00 0.05 0.05 95 1022.0
20191207041519 51 19 0.0 0.0 0.00 0.05 0.05 95 1022.0
20191207034708 51 19 1.0 3.0 0.00 0.05 0.05 95 1021.5
20191207033224 51 19 0.0 3.0 0.00 0.05 0.05 95 1021.5
20191207031609 51 36 1.0 5.0 0.00 0.05 0.05 95 1021.3
20191207030253 51 22 2.0 5.0 0.00 0.05 0.05 95 1021.1
20191207024646 51 22 2.0 6.0 0.00 0.05 0.05 95 1021.1
20191207023145 51 34 2.0 6.0 0.00 0.05 0.05 95 1021.0
20191207021739 51 32 2.0 8.0 0.00 0.05 0.05 95 1021.0
20191207020126 51 49 3.0 7.0 0.00 0.05 0.05 95 1020.9
20191207014727 51 42 2.0 5.0 0.00 0.05 0.05 95 1020.9
20191207013137 51 20 3.0 7.0 0.00 0.05 0.05 95 1020.9